Regional Weather Roundup
Issued by NWS Kansas City/Pleasant Hill, MO

Home | Current Version | Previous Version | Text Only | Print | Product List | Glossary On
Versions: 1 2 3 4 5 6 7 8 9 10 11 12 13 14 15 16 17 18 19 20 21 22 23 24 25 26 27 28 29 30 31 32 33 34 35 36 37 38 39 40 41 42 43 44 45 46 47 48 49 50
000
ASUS43 KEAX 261510
RWREAX

WEATHER ROUNDUP FOR EASTERN KANSAS AND NORTHWEST MISSOURI
NATIONAL WEATHER SERVICE KANSAS CITY/PLEASANT HILL MO
1000 AM CDT WED APR 26 2017

KSZ040-057-103>105-MOZ028-029-037-043-261600-
...KANSAS CITY METROPOLITAN AREA...

CITY           SKY/WX    TMP DP  RH WIND       PRES   REMARKS
K.C. INTL      CLOUDY    41  37  86 N16       29.61F WCI  33
K.C. DOWNTOWN  CLOUDY    44  39  82 N13G20    29.60F
LEES SUMMIT    CLOUDY    43  42  97 NW14      29.60S
OLATHE - IXD   CLOUDY    42  39  89 NW20G28   29.62F WCI  33
OLATHE - OJC   CLOUDY    42  39  89 N15G25    29.61S WCI  34
LAWRENCE       CLOUDY    43  38  82 NW18G26   29.64S WCI  35

$$

MOZ001>008-011>017-020>025-030>033-038>040-044>046-053-054-261600-
...NORTHERN AND CENTRAL MISSOURI...

CITY           SKY/WX    TMP DP  RH WIND       PRES   REMARKS
ST. JOSEPH     CLOUDY    41  38  89 NW12      29.65R WCI  34
WHITEMAN AFB   CLOUDY    45  45 100 NW9       29.57S FOG
CLINTON        CLOUDY    46  46 100 NW8       29.59R
SEDALIA        CLOUDY    48  47  96 NW14G23   29.58R
WARSAW         NOT AVBL
CHILLICOTHE      N/A     44  41  89 NW9G20    29.61R
KIRKSVILLE     CLOUDY    47  44  90 NW13      29.56R

$$

MOZ041-047>049-056>058-063>065-088>090-097-261600-
...EASTERN AND SOUTHERN MISSOURI...

CITY           SKY/WX    TMP DP  RH WIND       PRES   REMARKS
ST. LOUIS INTL CLOUDY    69  55  60 SW16      29.55R
SPIRIT OF STL  PTSUNNY   65  58  78 SW12G21   29.54R
COLUMBIA       CLOUDY    53  53 100 W12       29.54R FOG
JEFFERSON CITY CLOUDY    58  54  86 W8        29.55R
ROLLA          LGT RAIN  57  57 100 S10       29.55R
OSAGE BEACH    RAIN      58  58 100 CALM      29.54F FOG
SPRINGFIELD    LGT RAIN  54  53  97 NW13      29.54R FOG
BRANSON        TSTM      55  55 100 SE10      29.55S
JOPLIN         TSTM      49  47  93 N14G24    29.56F
WEST PLAINS    TSTM      59  57  93 W10G20    29.62R FOG

$$

IAZ060-094-KSZ022-034>040-054-083-096-NEZ052-066-093-261600-
...KANSAS...SOUTHEAST NEBRASKA AND IOWA...

CITY           SKY/WX    TMP DP  RH WIND       PRES   REMARKS
TOPEKA         CLOUDY    43  37  79 NW13      29.65S
MANHATTAN      CLOUDY    44  34  67 N12G23    29.68F
EMPORIA        CLOUDY    43  37  79 N10G25    29.65F
CHANUTE        LGT RAIN  44  39  82 N18G26    29.62S
WICHITA        CLOUDY    44  36  73 N24G31    29.67S WCI  35
OMAHA          CLOUDY    39  33  79 NW17G28   29.65F WCI  30
LINCOLN        CLOUDY    40  30  67 N17G25    29.71S WCI  31
FALLS CITY     CLOUDY    42  34  73 NW20      29.65S WCI  33
LAMONI         CLOUDY    42  39  89 NW20      29.60R WCI  33
DES MOINES     CLOUDY    43  38  82 NW20G26   29.57R WCI  34

$$




USA.gov is the U.S. government's official web portal to all federal, state and local government web resources and services.